STARLINK-1876 (47161 NORAD) Tracking and Keplerian Element Data

This shows tracking and keplerian element data for the satellite.

Feedback or suggestion? Click here.




ElementValue
Catalog47161
NameSTARLINK-1876
Epoch Orbit180
Epoch Day99.91667824
Epoch Year2021
RAAN68.67
Inclination53.0548
Eccentricity0.0001974
Argument of Perigee65.8702
Mean Anonmoly70.0757
Mean Motion15.0641744
Decay Rate-0.00015175
L11 47161U 20088AR 21099.91667824 -.00015175 00000-0 -10015-2 0 9991
L22 47161 53.0548 68.6700 0001974 65.8702 70.0757 15.06417440 1809

Live tracking and technical data element details for STARLINK-1876 (NORAD 47161). STARLINK-1876 can be tracked NOW for your location showing map with azimuth and elevation plus other details from your city location.

Track the satellite on the map from your city or location and see movement details for azimuth, elevation, latitude, longitude, range, height, and movement on the map or in text.







IsCatalogInMostPopularTable: catalog: 47161, numindb: 40
Update: records affected: 1



GetName: 47161 STARLINK-1876

Hit Count: updated at: Sat, 10 Apr 2021 19:33:49 GMT